Location: McMath-Hulbert Observatory
(42.6964°N, 83.3187°W)
Time: 10:47:42
(UTC-04:00)

Daily predictions for brighter satellites

Satellite Brightness Start Highest point End
(mag) Time Altitude Azimuth Time Altitude Azimuth Time Altitude Azimuth
Envisat 3.0 20:43:47 10° SSE 20:48:50 75° ENE 20:53:56 10° N
ATLAS CENTAUR R/B 2.3 20:52:11 10° SSE 20:55:00 21° ESE 20:57:55 10° ENE
Cosmos 1340 2.7 20:53:35 10° S 20:57:18 60° E 21:01:04 10° NNE
In-Cosmos 22 Rocket 4.2 20:51:56 10° N 20:57:28 88° E 21:02:49 10° S
Timation 1 Rocket 4.4 20:53:18 10° NNW 20:59:16 67° ENE 21:05:11 10° SE
NOSS 0 Rocket 4.5 21:01:33 10° SSE 21:07:02 35° ESE 21:12:32 10° NE
Cosmos 2322 4.5 21:04:00 10° SW 21:09:34 59° WNW 21:15:12 10° NNE
Cosmos 1825 3.8 21:07:03 10° NNE 21:09:41 18° ENE 21:11:38 13° ESE
SL-24 R/B - RUBIN 2 3.6 21:06:10 10° NW 21:10:32 80° WSW 21:14:54 10° SSE
BREEZE-M DEB (TANK) 3.4 21:08:55 10° W 21:12:09 38° NNW 21:14:14 10° NE
Thor Agena Rocket 3.5 21:07:57 10° NNE 21:13:13 79° ESE 21:18:29 10° SSW
Cosmos 1666 Rocket 3.6 21:10:01 10° N 21:14:31 80° E 21:18:58 10° S
OE (NEXTSAT) 4.4 21:11:53 10° WSW 21:15:27 83° NNW 21:19:01 10° ENE
SJ-6B 3.9 21:13:00 10° S 21:16:54 47° W 21:20:45 10° NNW
SL-16 R/B 3.9 21:17:50 12° E 21:18:13 12° E 21:20:24 10° ENE
SJ-11-01 4.4 21:14:03 10° SSE 21:18:38 60° ENE 21:23:15 10° N
Cosmos 1939 Rocket 2.7 21:15:54 10° SSE 21:19:45 84° ENE 21:23:41 10° N
Resurs 1-3 3.6 21:16:05 10° SSE 21:20:27 76° ENE 21:24:51 10° N
Cosmos 1933 Rocket 4.4 21:16:30 10° N 21:20:27 32° ENE 21:23:24 15° SE
USA 186 1.3 21:18:34 10° S 21:20:45 61° WSW 21:23:01 10° NNW
Meteor 2-3 Rocket 3.8 21:15:30 10° N 21:21:04 63° ENE 21:26:39 10° SSE
NOSS 2-1 (C) 3.6 21:18:35 10° SW 21:22:09 66° NW 21:26:11 10° NNE
SL-8 Rocket 4.5 21:16:30 10° SSE 21:22:17 40° E 21:28:04 10° NNE
NOSS 2-1 (D) 3.7 21:19:34 10° SW 21:23:09 63° NW 21:27:10 10° NNE
Meteor 2-21 Rocket 4.4 21:19:09 10° S 21:25:15 78° E 21:31:27 10° N
Cosmos 220 Rocket 4.1 21:22:17 10° NNW 21:26:36 59° ENE 21:29:56 16° SE
Sich 1 3.4 21:22:49 10° NNW 21:27:04 67° W 21:31:18 10° S
ARGOS 4.1 21:25:40 16° ESE 21:29:05 31° ENE 21:33:43 10° N
ATLAS 2AS CENTAUR R/B 3.0 21:21:08 10° NNW 21:29:07 74° NE 21:35:15 16° SE
Cosmos 1151 Rocket 3.4 21:25:21 10° SSE 21:29:19 40° E 21:33:20 10° NNE
Spot 2 Rocket 3.5 21:26:44 10° SSE 21:31:49 74° ENE 21:36:55 10° N
Lacrosse 5 4.3 21:33:23 10° NW 21:36:28 16° N 21:39:33 10° NE
BREEZE-M DEB (TANK) 4.2 21:29:12 10° W 21:37:42 41° NNW 21:40:40 10° NE
Nadezhda 3 Rocket 4.4 21:33:38 10° NNW 21:39:54 69° W 21:46:12 10° S
Cosmos 1980 3.7 21:38:51 10° S 21:44:24 58° ESE 21:49:59 10° NNE
Cosmos 1633 Rocket 3.8 21:43:14 10° NNW 21:47:28 53° W 21:51:42 10° S
Meteor 2-10 Rocket 4.3 21:46:07 20° SE 21:49:30 37° E 21:54:47 10° NNE
Meteor 1-27 4.4 21:45:35 10° SSW 21:51:19 79° W 21:57:01 10° N
Cosmos 2333 Rocket 2.3 21:47:16 10° SSW 21:52:56 78° WNW 21:58:37 10° NNE
Cosmos 1455 3.2 21:54:31 10° SSW 21:58:12 48° W 22:01:58 10° N
Cosmos 2228 Rocket 3.0 21:53:55 10° S 21:58:19 90° NW 22:02:43 10° N
COSMOS 2428 4.0 21:52:52 10° SW 21:58:19 43° WNW 22:03:47 10° NNE
Cosmos 1515 Rocket 3.5 21:54:03 10° S 21:58:31 89° WNW 22:03:00 10° N
NOSS 3-4 (A) 4.4 21:52:41 10° NNW 21:59:18 44° NE 22:03:34 23° ESE
NOSS 3-4 (C) 4.4 21:52:47 10° NNW 21:59:24 44° NE 22:03:39 23° ESE
Helios 1A 4.2 21:59:12 24° E 21:59:48 24° ENE 22:03:13 10° NNE
Cosmos 1408 2.4 21:56:32 10° N 22:00:13 82° E 22:01:42 34° SSE
Cosmos 1844 Rocket 4.2 21:55:26 10° NW 22:00:29 34° WSW 22:05:30 10° SSW
NOSS 3-3 (A) 4.5 22:00:40 10° SW 22:06:40 63° NW 22:13:19 10° NNE
NOSS 3-3 (C) 4.5 22:00:46 10° SW 22:06:46 64° NW 22:13:25 10° NNE
SL-8 R/B 3.6 22:04:51 10° SW 22:09:35 68° SSE 22:12:51 20° ENE
Cosmos 407 Rocket 4.0 22:04:43 10° N 22:09:37 43° ENE 22:11:08 34° ESE
H-2A R/B 2.2 22:07:50 34° SE 22:09:42 51° ENE 22:14:31 10° N
Cosmos 2219 Rocket 3.2 22:06:12 10° SW 22:11:39 48° WNW 22:17:07 10° NNE
ERS-1 Rocket 3.3 22:10:13 35° ESE 22:11:52 49° ENE 22:16:43 10° N
Cosmos 2237 Rocket 2.1 22:06:24 10° SSW 22:12:01 89° ESE 22:17:42 10° NNE
USA 267 3.6 22:06:53 10° ENE 22:12:51 37° SE 22:18:47 10° SSW
Cosmos 1862 4.1 22:10:26 10° N 22:14:04 33° ENE 22:14:04 33° ENE
MetOp-A 4.1 22:12:26 31° SSE 22:15:02 76° ENE 22:20:25 10° N
Cosmos 1371 Rocket 3.9 22:12:28 10° S 22:17:44 72° ESE 22:23:06 10° NNE
Genesis I 4.1 22:15:17 10° NW 22:19:11 45° WSW 22:20:28 33° SSW
Cosmos 2278 Rocket 2.4 22:15:03 10° NNW 22:20:42 70° WSW 22:23:35 30° S
Resurs 01 Rocket 3.6 22:17:27 10° SSW 22:21:08 25° W 22:24:50 10° NW
SL-08 RB Rocket 3.6 22:24:45 52° SE 22:25:46 73° ENE 22:30:14 10° N
Cosmos 405 Rocket 3.9 22:28:05 30° NE 22:28:05 30° NE 22:30:32 10° NNE
ATLAS 5 CENTAUR R/B 4.4 22:23:53 10° N 22:27:24 16° NNE 22:31:07 10° ENE
Cosmos 1727 Rocket 3.9 22:22:39 10° N 22:28:52 79° E 22:31:34 36° SSE
ATLAS CENTAUR R/B 3.0 22:30:26 10° WSW 22:33:45 31° NW 22:37:15 10° NNE
Cosmos 2056 Rocket 3.5 22:35:44 22° SSW 22:39:21 87° ESE 22:44:48 10° NNE
Cosmos 2098 Rocket 3.5 22:39:29 25° SSW 22:42:05 58° W 22:45:56 10° N
Cosmos 1825 3.8 22:41:58 10° NNW 22:45:18 30° W 22:46:30 24° SW
Landsat 7 4.2 22:46:49 46° ENE 22:46:49 46° ENE 22:51:17 10° N
USA 234 4.4 22:43:06 18° ENE 22:47:12 36° NNE 22:53:02 10° NW
Cosmos 405 3.7 22:45:11 10° NNW 22:48:07 52° NW 22:48:07 52° NW
Cosmos 1624 Rocket 4.3 22:52:47 18° SW 22:56:36 63° WNW 23:01:46 10° NNE
Cosmos 1190 Rocket 4.1 22:54:45 10° NNW 23:00:01 67° WSW 23:00:47 58° SSW
SL-16 R/B 2.1 22:59:33 44° SSW 23:01:27 89° WNW 23:07:09 10° NNE
Cosmos 2344 3.5 22:58:40 37° S 23:01:40 59° ESE 23:09:42 10° NE
Terra 2.5 23:05:06 44° NE 23:05:06 44° NE 23:09:02 10° N
GEOS 3 Rocket 3.7 22:59:43 10° NE 23:05:06 78° NW 23:10:21 10° SW
Cosmos 1140 Rocket 3.4 23:01:41 10° NNW 23:06:45 72° NE 23:06:45 72° NE
ARGOS 4.3 23:07:10 27° SW 23:09:12 36° W 23:14:08 10° NNW
CZ-4C R/B 3.9 23:13:19 19° ENE 23:13:19 19° ENE 23:15:12 10° NE
Cosmos 1707 Rocket 4.0 23:13:35 57° NNW 23:13:35 57° NNW 23:17:13 10° N
Cosmos 1943 Rocket 3.8 23:08:47 10° N 23:12:55 21° NE 23:13:21 21° ENE
Cosmos 1954 Rocket 3.9 23:08:11 10° NNW 23:13:15 81° NNE 23:13:15 81° NNE
CZ-2C R/B 4.0 23:14:25 32° NE 23:14:25 32° NE 23:17:49 10° N
SPOT 5 3.1 23:19:19 58° WNW 23:19:19 58° WNW 23:23:25 10° NNW
ATLAS 2AS CENTAUR R/B 4.4 23:13:17 10° NW 23:19:20 26° WSW 23:22:43 18° SW
Helios 1B rocket 3.4 23:16:50 10° N 23:19:46 44° N 23:19:46 44° N
Lacrosse 5 3.4 23:16:42 10° NNW 23:20:59 27° NNE 23:21:58 25° NE
Cosmos 2297 4.3 23:26:27 10° NW 23:31:53 47° WSW 23:32:07 47° WSW
Cosmos 1733 Rocket 4.2 23:28:37 10° N 23:31:26 39° N 23:31:26 39° N
SPOT 1/Viking Rocket 4.3 23:40:49 44° W 23:40:49 44° W 23:45:46 10° NNW
Cosmos 2369 Rocket 2.9 23:35:20 10° NNW 23:40:15 43° NE 23:40:15 43° NE
Meteor 2-17 Rocket 4.5 23:42:28 69° NE 23:42:28 69° NE 23:47:59 10° NNE
Cosmos 1420 Rocket 4.5 23:45:16 58° N 23:45:16 58° N 23:49:35 10° NNE
Meteor 1-25 Rocket 4.4 23:41:36 10° N 23:46:35 66° N 23:46:35 66° N
H-2A R/B 4.0 23:48:28 18° WSW 23:49:23 19° W 23:52:55 10° NW
Meteor 1-26 Rocket 4.5 23:51:00 64° NNW 23:51:00 64° NNW 23:55:47 10° N
NOSS 3-4 (A) 4.3 23:43:36 10° NW 23:50:22 47° WSW 23:51:00 46° SW
NOSS 3-4 (C) 4.3 23:43:42 10° NW 23:50:28 48° WSW 23:51:06 47° SW
